| time (UTC) | temp F | wind direction | speed knots | gust knots | rain 1hr in | rain 24hr in | rain mn in | humidity % | barometer mb |
| 20260903111003 | 67 | 88 | 0.9 | 4.3 | 0.00 | 0.00 | 0.00 | 85 | 1021.5 |
| 20260903110004 | 67 | 71 | 2.6 | 4.3 | 0.00 | 0.00 | 0.00 | 85 | 1021.3 |
| 20260903105003 | 67 | 70 | 2.6 | 4.3 | 0.00 | 0.00 | 0.00 | 85 | 1021.4 |
| 20260903104005 | 67 | 106 | 0.9 | 2.6 | 0.00 | 0.00 | 0.00 | 86 | 1021.4 |
| 20260903103003 | 67 | 106 | 1.7 | 2.6 | 0.00 | 0.00 | 0.00 | 87 | 1021.6 |
| 20260903102004 | 67 | 114 | 0.9 | 1.7 | 0.00 | 0.00 | 0.00 | 88 | 1021.5 |
| 20260903101003 | 67 | 71 | 0.0 | 4.3 | 0.00 | 0.00 | 0.00 | 88 | 1021.6 |
| 20260903095004 | 67 | 342 | 0.0 | 1.7 | 0.00 | 0.00 | 0.00 | 90 | 1021.6 |
| 20260903094005 | 67 | 9 | 0.9 | 2.6 | 0.00 | 0.00 | 0.00 | 89 | 1021.8 |
| 20260903093004 | 67 | 52 | 1.7 | 1.7 | 0.00 | 0.00 | 0.00 | 87 | 1021.7 |
| 20260903092004 | 67 | 35 | 0.9 | 2.6 | 0.00 | 0.00 | 0.00 | 87 | 1021.5 |
| 20260903091003 | 67 | 13 | 0.9 | 2.6 | 0.00 | 0.00 | 0.00 | 87 | 1021.7 |
| 20260903090005 | 67 | 37 | 0.9 | 2.6 | 0.00 | 0.00 | 0.00 | 87 | 1021.6 |
| 20260903085004 | 67 | 77 | 1.7 | 4.3 | 0.00 | 0.00 | 0.00 | 87 | 1021.7 |
| 20260903084004 | 67 | 84 | 1.7 | 4.3 | 0.00 | 0.00 | 0.00 | 87 | 1021.7 |
| 20260903082004 | 68 | 82 | 0.9 | 4.3 | 0.00 | 0.00 | 0.00 | 86 | 1021.9 |
| 20260903081004 | 68 | 103 | 1.7 | 4.3 | 0.00 | 0.00 | 0.00 | 87 | 1022.0 |
| 20260903080004 | 68 | 89 | 2.6 | 4.3 | 0.00 | 0.00 | 0.00 | 86 | 1022.0 |
| 20260903075004 | 68 | 61 | 1.7 | 4.3 | 0.00 | 0.00 | 0.00 | 86 | 1022.2 |
| 20260903072004 | 68 | 73 | 0.9 | 5.2 | 0.00 | 0.00 | 0.00 | 84 | 1022.2 |
| 20260903071005 | 69 | 106 | 1.7 | 4.3 | 0.00 | 0.00 | 0.00 | 84 | 1022.2 |
| 20260903070003 | 69 | 101 | 1.7 | 5.2 | 0.00 | 0.00 | 0.00 | 83 | 1022.4 |
| 20260903065004 | 69 | 45 | 2.6 | 5.2 | 0.00 | 0.00 | 0.00 | 84 | 1022.4 |
| 20260903064004 | 69 | 93 | 0.9 | 4.3 | 0.00 | 0.00 | 0.00 | 84 | 1022.4 |
| 20260903062004 | 69 | 135 | 1.7 | 5.2 | 0.00 | 0.00 | 0.00 | 84 | 1022.7 |
| 20260903061004 | 69 | 101 | 1.7 | 4.3 | 0.00 | 0.00 | 0.00 | 84 | 1022.5 |
| 20260903060004 | 69 | 67 | 0.9 | 4.3 | 0.00 | 0.00 | 0.00 | 84 | 1022.5 |
| 20260903054004 | 69 | 113 | 0.9 | 4.3 | 0.00 | 0.00 | 0.00 | 84 | 1022.4 |
| 20260903053004 | 69 | 129 | 1.7 | 4.3 | 0.00 | 0.00 | 0.00 | 85 | 1022.5 |
| 20260903051004 | 69 | 86 | 2.6 | 7.0 | 0.00 | 0.00 | 0.00 | 85 | 1022.4 |
| 20260903050004 | 69 | 90 | 0.9 | 4.3 | 0.00 | 0.00 | 0.00 | 84 | 1022.6 |
| 20260903045005 | 69 | 93 | 1.7 | 2.6 | 0.00 | 0.00 | 0.00 | 84 | 1022.6 |
| 20260903044005 | 70 | 78 | 0.0 | 2.6 | 0.00 | 0.00 | 0.00 | 84 | 1022.6 |
| 20260903042004 | 70 | 85 | 1.7 | 5.2 | 0.00 | 0.00 | 0.00 | 84 | 1022.6 |
| 20260903041004 | 70 | 346 | 2.6 | 6.1 | 0.00 | 0.00 | 0.00 | 84 | 1022.6 |
| 20260903040004 | 70 | 99 | 0.0 | 2.6 | 0.00 | 0.00 | 0.00 | 82 | 1022.5 |
| 20260903035004 | 70 | 72 | 1.7 | 2.6 | 0.00 | 0.00 | 0.00 | 83 | 1022.4 |
| 20260903034005 | 71 | 108 | 0.9 | 1.7 | 0.00 | 0.00 | 0.00 | 83 | 1022.2 |
| 20260903033004 | 71 | 114 | 0.9 | 2.6 | 0.00 | 0.00 | 0.00 | 82 | 1022.3 |
| 20260903030005 | 71 | 138 | 0.9 | 2.6 | 0.00 | 0.00 | 0.00 | 81 | 1021.9 |
| 20260903024004 | 71 | 90 | 0.0 | 1.7 | 0.00 | 0.00 | 0.00 | 80 | 1021.9 |
| 20260903023004 | 71 | 101 | 0.0 | 2.6 | 0.00 | 0.00 | 0.00 | 80 | 1021.9 |
| 20260903022004 | 71 | 103 | 0.0 | 2.6 | 0.00 | 0.00 | 0.00 | 80 | 1021.7 |
| 20260903021006 | 71 | 84 | 0.0 | 4.3 | 0.00 | 0.00 | 0.00 | 80 | 1021.7 |
| 20260903020004 | 71 | 120 | 4.3 | 5.2 | 0.00 | 0.00 | 0.00 | 79 | 1021.5 |
| 20260903015004 | 72 | 174 | 0.9 | 4.3 | 0.00 | 0.00 | 0.00 | 78 | 1021.5 |
| 20260903014004 | 72 | 127 | 1.7 | 4.3 | 0.00 | 0.00 | 0.00 | 78 | 1021.3 |
| 20260903013004 | 72 | 91 | 0.9 | 2.6 | 0.00 | 0.00 | 0.00 | 77 | 1021.3 |
| 20260903012004 | 73 | 125 | 0.0 | 2.6 | 0.00 | 0.00 | 0.00 | 77 | 1021.2 |
| 20260903011005 | 73 | 252 | 1.7 | 4.3 | 0.00 | 0.00 | 0.00 | 76 | 1021.1 |
| 20260903010006 | 73 | 130 | 0.9 | 6.1 | 0.00 | 0.00 | 0.00 | 76 | 1020.9 |
| 20260903005004 | 73 | 123 | 1.7 | 6.1 | 0.00 | 0.00 | 0.00 | 76 | 1021.1 |
| 20260903003004 | 73 | 233 | 1.7 | 6.1 | 0.00 | 0.00 | 0.00 | 75 | 1021.0 |
| 20260903002004 | 73 | 135 | 2.6 | 6.1 | 0.00 | 0.00 | 0.00 | 74 | 1021.1 |
| 20260903001006 | 74 | 104 | 2.6 | 7.0 | 0.00 | 0.00 | 0.00 | 74 | 1021.0 |
| 20260903000005 | 74 | 126 | 2.6 | 5.2 | 0.00 | 0.00 | 0.00 | 74 | 1020.9 |
| 20260902235004 | 74 | 180 | 1.7 | 10.4 | 0.00 | 0.00 | 0.00 | 74 | 1020.9 |
| 20260902234004 | 74 | 157 | 5.2 | 10.4 | 0.00 | 0.00 | 0.00 | 74 | 1021.0 |
| 20260902233004 | 74 | 128 | 4.3 | 7.8 | 0.00 | 0.00 | 0.00 | 72 | 1020.9 |
| 20260902232004 | 74 | 183 | 1.7 | 10.4 | 0.00 | 0.00 | 0.00 | 72 | 1021.0 |
| 20260902230004 | 75 | 163 | 2.6 | 12.2 | 0.00 | 0.00 | 0.00 | 68 | 1020.9 |
| 20260902224004 | 76 | 163 | 2.6 | 11.3 | 0.00 | 0.00 | 0.00 | 67 | 1020.8 |
| 20260902223004 | 76 | 162 | 2.6 | 7.8 | 0.00 | 0.00 | 0.00 | 66 | 1020.7 |
| 20260902222004 | 77 | 155 | 4.3 | 11.3 | 0.00 | 0.00 | 0.00 | 66 | 1020.5 |
| 20260902221004 | 76 | 208 | 6.1 | 11.3 | 0.00 | 0.00 | 0.00 | 65 | 1020.7 |
| 20260902220004 | 76 | 121 | 4.3 | 12.2 | 0.00 | 0.00 | 0.00 | 66 | 1020.9 |
| 20260902215004 | 75 | 181 | 6.1 | 13.0 | 0.00 | 0.00 | 0.00 | 69 | 1020.9 |
| 20260902213004 | 76 | 228 | 5.2 | 13.9 | 0.00 | 0.00 | 0.00 | 67 | 1020.9 |
| 20260902212005 | 77 | 171 | 5.2 | 13.9 | 0.00 | 0.00 | 0.00 | 64 | 1021.0 |
| 20260902211005 | 77 | 142 | 8.7 | 13.9 | 0.00 | 0.00 | 0.00 | 63 | 1020.9 |
| 20260902210004 | 76 | 153 | 7.0 | 14.8 | 0.00 | 0.00 | 0.00 | 65 | 1021.1 |
| 20260902204005 | 76 | 180 | 4.3 | 15.6 | 0.00 | 0.00 | 0.00 | 69 | 1021.3 |
| 20260902203004 | 76 | 173 | 7.0 | 17.4 | 0.00 | 0.00 | 0.00 | 66 | 1021.2 |
| 20260902202004 | 76 | 163 | 7.0 | 11.3 | 0.00 | 0.00 | 0.00 | 64 | 1021.4 |
| 20260902201005 | 76 | 232 | 3.5 | 13.0 | 0.00 | 0.00 | 0.00 | 64 | 1021.6 |
| 20260902200004 | 77 | 170 | 2.6 | 12.2 | 0.00 | 0.00 | 0.00 | 62 | 1021.6 |
| 20260902195008 | 76 | 162 | 9.6 | 12.2 | 0.00 | 0.00 | 0.00 | 62 | 1021.7 |
| 20260902194005 | 76 | 175 | 0.9 | 12.2 | 0.00 | 0.00 | 0.00 | 61 | 1022.0 |
| 20260902193005 | 77 | 129 | 1.7 | 10.4 | 0.00 | 0.00 | 0.00 | 61 | 1022.1 |
| 20260902192005 | 76 | 164 | 5.2 | 8.7 | 0.00 | 0.00 | 0.00 | 61 | 1022.3 |
| 20260902191002 | 78 | 168 | 3.5 | 8.7 | 0.00 | 0.00 | 0.00 | 59 | 1022.2 |
| 20260902190002 | 78 | 145 | 3.5 | 10.4 | 0.00 | 0.00 | 0.00 | 59 | 1022.2 |
| 20260902185003 | 74 | 256 | 1.7 | 10.4 | 0.00 | 0.00 | 0.00 | 61 | 1022.4 |
| 20260902184002 | 75 | 219 | 1.7 | 10.4 | 0.00 | 0.00 | 0.00 | 61 | 1022.6 |
| 20260902183005 | 74 | 189 | 4.3 | 10.4 | 0.00 | 0.00 | 0.00 | 62 | 1022.7 |
| 20260902182003 | 74 | 148 | 5.2 | 10.4 | 0.00 | 0.00 | 0.00 | 64 | 1022.9 |
| 20260902181002 | 75 | 183 | 5.2 | 8.7 | 0.00 | 0.00 | 0.00 | 63 | 1022.9 |
| 20260902180005 | 74 | 140 | 4.3 | 10.4 | 0.00 | 0.00 | 0.00 | 62 | 1023.0 |
| 20260902175003 | 76 | 170 | 5.2 | 7.8 | 0.00 | 0.00 | 0.00 | 62 | 1023.0 |
| 20260902173003 | 76 | 184 | 1.7 | 4.3 | 0.00 | 0.00 | 0.00 | 64 | 1023.4 |
| 20260902172002 | 74 | 217 | 1.7 | 7.0 | 0.00 | 0.00 | 0.00 | 63 | 1023.3 |
| 20260902170002 | 74 | 173 | 1.7 | 4.3 | 0.00 | 0.00 | 0.00 | 65 | 1023.1 |
| 20260902165003 | 74 | 176 | 1.7 | 4.3 | 0.00 | 0.00 | 0.00 | 64 | 1023.2 |
| 20260902164002 | 73 | 130 | 1.7 | 5.2 | 0.00 | 0.00 | 0.00 | 67 | 1023.1 |
| 20260902163003 | 71 | 351 | 2.6 | 5.2 | 0.00 | 0.00 | 0.00 | 68 | 1023.1 |
| 20260902162003 | 72 | 91 | 1.7 | 4.3 | 0.00 | 0.00 | 0.00 | 70 | 1023.0 |
| 20260902161003 | 70 | 357 | 1.7 | 5.2 | 0.00 | 0.00 | 0.00 | 73 | 1023.3 |
| 20260902160006 | 72 | 123 | 2.6 | 5.2 | 0.00 | 0.00 | 0.00 | 71 | 1023.1 |
| 20260902155002 | 69 | 19 | 0.9 | 5.2 | 0.00 | 0.00 | 0.00 | 74 | 1023.1 |
| 20260902154003 | 70 | 47 | 0.9 | 5.2 | 0.00 | 0.00 | 0.00 | 75 | 1023.2 |
| 20260902153002 | 70 | 307 | 2.6 | 6.1 | 0.00 | 0.00 | 0.00 | 77 | 1023.3 |
| 20260902152003 | 68 | 53 | 3.5 | 7.8 | 0.00 | 0.00 | 0.00 | 79 | 1023.2 |
| 20260902151002 | 67 | 329 | 2.6 | 7.0 | 0.00 | 0.00 | 0.00 | 81 | 1023.1 |
| 20260902150003 | 68 | 356 | 2.6 | 7.0 | 0.00 | 0.00 | 0.00 | 81 | 1023.3 |
| 20260902145003 | 67 | 21 | 1.7 | 7.0 | 0.00 | 0.00 | 0.00 | 82 | 1023.3 |
| 20260902144003 | 67 | 50 | 0.9 | 7.0 | 0.00 | 0.00 | 0.00 | 84 | 1023.3 |
| 20260902143003 | 67 | 83 | 4.3 | 7.0 | 0.00 | 0.00 | 0.00 | 84 | 1023.1 |
| 20260902142005 | 66 | 26 | 4.3 | 7.0 | 0.00 | 0.00 | 0.00 | 86 | 1023.2 |
| 20260902141003 | 67 | 83 | 2.6 | 6.1 | 0.00 | 0.00 | 0.00 | 86 | 1023.3 |
| 20260902140002 | 67 | 58 | 2.6 | 6.1 | 0.00 | 0.00 | 0.00 | 86 | 1023.1 |
| 20260902135003 | 66 | 103 | 1.7 | 6.1 | 0.00 | 0.00 | 0.00 | 90 | 1023.0 |
| 20260902134002 | 64 | 88 | 0.9 | 5.2 | 0.00 | 0.00 | 0.00 | 92 | 1023.0 |
| 20260902133009 | 64 | 74 | 1.7 | 4.3 | 0.00 | 0.00 | 0.00 | 93 | 1022.8 |
| 20260902131003 | 64 | 58 | 1.7 | 5.2 | 0.00 | 0.00 | 0.00 | 94 | 1022.6 |
| 20260902130006 | 64 | 67 | 1.7 | 2.6 | 0.00 | 0.00 | 0.00 | 94 | 1022.4 |
| 20260902125003 | 64 | 130 | 1.7 | 6.1 | 0.00 | 0.00 | 0.00 | 94 | 1022.5 |
| 20260902124003 | 64 | 111 | 1.7 | 5.2 | 0.00 | 0.00 | 0.00 | 94 | 1022.4 |
| 20260902123002 | 64 | 49 | 1.7 | 5.2 | 0.00 | 0.00 | 0.00 | 95 | 1022.5 |
| 20260902122005 | 64 | 82 | 1.7 | 5.2 | 0.00 | 0.00 | 0.00 | 95 | 1022.5 |
| 20260902121003 | 65 | 117 | 1.7 | 2.6 | 0.00 | 0.00 | 0.00 | 95 | 1022.6 |
| 20260902120003 | 64 | 53 | 1.7 | 4.3 | 0.00 | 0.00 | 0.00 | 95 | 1022.6 |
| 20260902115003 | 65 | 104 | 1.7 | 4.3 | 0.00 | 0.00 | 0.00 | 95 | 1022.5 |
| 20260902112003 | 65 | 63 | 0.9 | 4.3 | 0.00 | 0.00 | 0.00 | 95 | 1022.5 |